Location: Newark
(51.8900°N, 2.0780°W)
Time: 05:22:14
(UTC+00:00)

Envisat - Pass Details

Date: 28 November 2019
Orbit: 764 x 766 km, 98.1° (Epoch: 05 December)

Event Time Altitude Azimuth Distance (km) Brightness Sun altitude
Rises 05:24:06 0° 30° (NNE) 3,244 6.5 -21.4°
Reaches altitude 10° 05:28:04 10° 61° (ENE) 2,310 6.2 -20.8°
Maximum altitude 05:29:59 12° 83° (E) 2,168 6.4 -20.5°
Drops below altitude 10° 05:31:54 10° 106° (ESE) 2,304 6.7 -20.2°
Sets 05:35:50 0° 137° (SE) 3,223 7.1 -19.6°
